Preview of NWS' New Version of Forecast
This preview is not operational and should not be used for support decisions.

Regional Weather Roundup (RWR)

Issued by National Weather Service (NWS)

                            
000
ASUS43 KLSX 181407
RWRMO 

WEATHER SUMMARY FOR MISSOURI
NATIONAL WEATHER SERVICE SPRINGFIELD MO
900 AM CDT SAT MAY 18 2019

NOTE: "FAIR" INDICATES FEW OR NO CLOUDS BELOW 12,000 FEET WITH NO
       SIGNIFICANT WEATHER AND/OR OBSTRUCTIONS TO VISIBILITY.
       CURRENT SKY AND/OR WEATHER CONDITIONS ARE NOT AVAILABLE FOR
       CHILLICOTHE AND FARMINGTON.

MOZ001>031-035>038-043-044-053-054-181500-
...NORTHERN AND WESTERN MISSOURI...
  
CITY           SKY/WX    TMP DP  RH WIND       PRES   REMARKS
KANSAS CTY INT CLOUDY    65  59  81 E7        29.69R                  
KANSAS C DTWN  CLOUDY    70  58  65 VRB5      29.69F                  
LEE'S SUMMIT   LGT RAIN  65  63  93 S5        29.72F FOG              
ST JOSEPH      MOSUNNY   68  63  84 SE9       29.63F                  
CHILLICOTHE      N/A     67  63  87 S6        29.72F                  
KIRKSVILLE     LGT RAIN  65  64  97 W3        29.75R                  
     
$$
MOZ066>068-077>081-088>096-101>105-181500-
...SOUTHWEST MISSOURI...
  
CITY           SKY/WX    TMP DP  RH WIND       PRES   REMARKS
SPRINGFIELD    CLOUDY    71  62  73 S14       29.80R                  
JOPLIN         CLOUDY    74  66  76 S15G26    29.74R                  
BRANSON        MOSUNNY   73  64  73 SE14G21   29.83S                  
               
$$
MOZ032>034-039>042-045>050-055>058-069>072-181500-
...CENTRAL MISSOURI...  
  
CITY           SKY/WX    TMP DP  RH WIND       PRES   REMARKS
COLUMBIA       CLOUDY    73  61  65 S14G28    29.77R                  
JEFFERSON CITY PTSUNNY   75  61  61 S17G24    29.76F                  
ROLLA          MOSUNNY   74  63  68 S13G22    29.82F                  
SEDALIA        CLOUDY    70  61  73 S20G30    29.73S                  
WHITEMAN AFB   PTSUNNY   73  65  75 S20G25    29.66F                  
WARRENSBURG    DRIZZLE   68  61  77 W7G17     29.73R                  
OSAGE BEACH    CLOUDY    71  64  78 S7        29.78F                  
               
$$
MOZ051-052-059>065-181500-
...EAST CENTRAL MISSOURI...
  
CITY           SKY/WX    TMP DP  RH WIND       PRES   REMARKS
ST LOUIS INTL  MOSUNNY   77  60  55 S15G25    29.82F                  
SPIRIT OF STL  MOSUNNY   76  62  62 SW10G17   29.80F                  
ST CHARLES     MOSUNNY   78  62  57 S20G30    29.80F                  
                   
$$
MOZ072>076-082>087-097>100-106>115-181500-
...SOUTH CENTRAL AND SOUTHEAST MISSOURI...
  
CITY           SKY/WX    TMP DP  RH WIND       PRES   REMARKS
CAPE GIRARDEAU FAIR      77  64  64 SW15G23   29.91S                  
FARMINGTON     MOSUNNY   73  63  70 S14       29.89F                  
POPLAR BLUFF   FAIR      75  65  70 S9G20     29.91R                  
WEST PLAINS    CLOUDY    74  62  66 S15G24    29.88F                  
                                       
$$